• In Italy
  • List of Countries
  • For 7 days
  • Water Temperature
  • Satellite Maps
  • Weather Map
  • Weather Widgets
  • user-avatar
    Login

    Hourly Weather Qala i Naw

    Today, 14 December, Thursday

    Time Temperature Precipitation Wind Pressure Humidity
    00:00 +1°C° 0 mm 1 mps 684 mmHg 49%
    01:00 0°C° 0 mm 1 mps 684 mmHg 50%
    02:00 -1°C° 0 mm 0 mps 684 mmHg 52%
    03:00 -2°C° 0 mm 0 mps 684 mmHg 54%
    04:00 -2°C° 0 mm 0 mps 683 mmHg 56%
    05:00 -2°C° 0 mm 0 mps 683 mmHg 57%
    06:00 -2°C° 0 mm 0 mps 684 mmHg 58%
    07:00 -3°C° 0 mm 0 mps 684 mmHg 59%
    08:00 0°C° 0 mm 1 mps 684 mmHg 53%
    09:00 +2°C° 0 mm 1 mps 685 mmHg 47%
    10:00 +3°C° 0 mm 1 mps 685 mmHg 42%
    11:00 +3°C° 0 mm 2 mps 685 mmHg 40%
    12:00 +4°C° 0 mm 2 mps 685 mmHg 37%
    13:00 +4°C° 0 mm 3 mps 684 mmHg 35%
    14:00 +3°C° 0 mm 3 mps 684 mmHg 35%
    15:00 +3°C° 0 mm 3 mps 684 mmHg 36%
    16:00 +3°C° 0 mm 3 mps 684 mmHg 36%
    17:00 +3°C° 0 mm 2 mps 684 mmHg 39%
    18:00 +3°C° 0 mm 1 mps 684 mmHg 42%
    19:00 +2°C° 0 mm 1 mps 685 mmHg 44%
    20:00 +2°C° 0 mm 1 mps 684 mmHg 45%
    21:00 +2°C° 0 mm 1 mps 684 mmHg 46%
    22:00 +2°C° 0 mm 1 mps 684 mmHg 46%
    23:00 +1°C° 0 mm 1 mps 684 mmHg 47%

    Tomorrow, 15 December, Friday

    Time Temperature Precipitation Wind Pressure Humidity
    00:00 +1°C° 0 mm 1 mps 684 mmHg 48%
    01:00 +1°C° 0 mm 1 mps 684 mmHg 48%
    02:00 +1°C° 0 mm 1 mps 684 mmHg 49%
    03:00 +1°C° 0 mm 1 mps 684 mmHg 49%
    04:00 +1°C° 0 mm 1 mps 683 mmHg 49%
    05:00 +1°C° 0 mm 1 mps 684 mmHg 49%
    06:00 +1°C° 0 mm 1 mps 684 mmHg 48%
    07:00 -1°C° 0 mm 2 mps 684 mmHg 48%
    08:00 +2°C° 0 mm 2 mps 685 mmHg 44%
    09:00 +4°C° 0 mm 2 mps 685 mmHg 40%
    10:00 +7°C° 0 mm 2 mps 686 mmHg 36%
    11:00 +7°C° 0.1 mm 2 mps 685 mmHg 38%
    12:00 +9°C° 0.1 mm 1 mps 685 mmHg 39%
    13:00 +9°C° 0.1 mm 1 mps 684 mmHg 41%
    14:00 +9°C° 0.1 mm 1 mps 684 mmHg 43%
    15:00 +8°C° 0.1 mm 1 mps 684 mmHg 46%
    16:00 +7°C° 0.1 mm 2 mps 684 mmHg 48%
    17:00 +7°C° 0 mm 2 mps 684 mmHg 50%
    18:00 +6°C° 0 mm 2 mps 685 mmHg 53%
    19:00 +6°C° 0 mm 2 mps 685 mmHg 55%
    20:00 +5°C° 0 mm 2 mps 685 mmHg 56%
    21:00 +5°C° 0 mm 2 mps 685 mmHg 57%
    22:00 +5°C° 0 mm 2 mps 685 mmHg 57%
    23:00 +4°C° 0 mm 2 mps 684 mmHg 57%

    Day after tomorrow, 16 December, Saturday

    Time Temperature Precipitation Wind Pressure Humidity
    00:00 +4°C° 0 mm 2 mps 684 mmHg 56%
    01:00 +4°C° 0 mm 2 mps 684 mmHg 55%
    02:00 +4°C° 0 mm 2 mps 684 mmHg 55%
    03:00 +4°C° 0 mm 2 mps 684 mmHg 55%
    04:00 +4°C° 0 mm 2 mps 684 mmHg 55%
    05:00 +4°C° 0 mm 2 mps 684 mmHg 55%
    06:00 +3°C° 0 mm 2 mps 684 mmHg 55%
    07:00 +3°C° 0 mm 2 mps 685 mmHg 55%
    08:00 +7°C° 0 mm 1 mps 685 mmHg 47%
    09:00 +9°C° 0 mm 1 mps 686 mmHg 40%
    10:00 +11°C° 0 mm 1 mps 686 mmHg 33%
    11:00 +12°C° 0 mm 1 mps 686 mmHg 31%
    12:00 +13°C° 0 mm 2 mps 686 mmHg 29%
    13:00 +13°C° 0 mm 2 mps 685 mmHg 26%
    14:00 +13°C° 0 mm 2 mps 685 mmHg 28%
    15:00 +12°C° 0 mm 2 mps 685 mmHg 30%
    16:00 +12°C° 0 mm 2 mps 685 mmHg 32%
    17:00 +9°C° 0 mm 2 mps 685 mmHg 35%
    18:00 +9°C° 0 mm 1 mps 685 mmHg 38%
    19:00 +8°C° 0 mm 1 mps 686 mmHg 42%
    20:00 +8°C° 0 mm 1 mps 686 mmHg 42%
    21:00 +7°C° 0 mm 1 mps 686 mmHg 42%
    22:00 +7°C° 0 mm 1 mps 686 mmHg 42%
    23:00 +7°C° 0 mm 1 mps 686 mmHg 43%

    17 December, Sunday

    Time Temperature Precipitation Wind Pressure Humidity
    00:00 +6°C° 0 mm 1 mps 686 mmHg 44%
    01:00 +6°C° 0 mm 1 mps 686 mmHg 45%
    02:00 +6°C° 0 mm 1 mps 686 mmHg 46%
    03:00 +6°C° 0 mm 1 mps 686 mmHg 46%
    04:00 +5°C° 0 mm 1 mps 686 mmHg 47%
    05:00 +5°C° 0 mm 1 mps 686 mmHg 47%
    06:00 +5°C° 0 mm 1 mps 686 mmHg 48%
    07:00 +5°C° 0 mm 1 mps 686 mmHg 48%
    08:00 +7°C° 0 mm 1 mps 687 mmHg 43%
    09:00 +9°C° 0 mm 1 mps 687 mmHg 39%
    10:00 +11°C° 0 mm 1 mps 688 mmHg 34%
    11:00 +12°C° 0 mm 1 mps 687 mmHg 33%
    12:00 +13°C° 0 mm 2 mps 687 mmHg 32%
    13:00 +13°C° 0 mm 2 mps 686 mmHg 30%
    14:00 +13°C° 0 mm 2 mps 686 mmHg 32%
    15:00 +13°C° 0 mm 2 mps 686 mmHg 34%
    16:00 +12°C° 0 mm 2 mps 686 mmHg 35%
    17:00 +10°C° 0 mm 2 mps 686 mmHg 38%
    18:00 +11°C° 0 mm 1 mps 686 mmHg 41%
    19:00 +10°C° 0 mm 1 mps 686 mmHg 44%
    20:00 +10°C° 0.1 mm 1 mps 686 mmHg 46%
    21:00 +9°C° 0.1 mm 1 mps 686 mmHg 49%
    22:00 +9°C° 0.1 mm 1 mps 686 mmHg 51%
    23:00 +9°C° 0 mm 1 mps 686 mmHg 53%

    18 December, Monday

    Time Temperature Precipitation Wind Pressure Humidity
    00:00 +8°C° 0 mm 1 mps 685 mmHg 55%
    01:00 +8°C° 0 mm 1 mps 685 mmHg 57%
    02:00 +8°C° 0 mm 1 mps 685 mmHg 58%
    03:00 +8°C° 0 mm 1 mps 685 mmHg 59%
    04:00 +8°C° 0 mm 1 mps 685 mmHg 60%
    05:00 +8°C° 0.1 mm 1 mps 685 mmHg 61%
    06:00 +8°C° 0.1 mm 1 mps 685 mmHg 62%
    07:00 +8°C° 0.1 mm 1 mps 685 mmHg 63%
    08:00 +9°C° 0.1 mm 1 mps 685 mmHg 60%
    09:00 +9°C° 0.1 mm 2 mps 686 mmHg 57%
    10:00 +10°C° 0.1 mm 2 mps 686 mmHg 54%
    11:00 +10°C° 0.2 mm 2 mps 686 mmHg 53%
    12:00 +12°C° 0.2 mm 2 mps 685 mmHg 52%
    13:00 +11°C° 0.2 mm 3 mps 685 mmHg 50%
    14:00 +12°C° 0 mm 2 mps 685 mmHg 50%
    15:00 +12°C° 0 mm 2 mps 685 mmHg 49%
    16:00 +12°C° 0 mm 2 mps 685 mmHg 48%
    17:00 +10°C° 0 mm 2 mps 685 mmHg 50%
    18:00 +9°C° 0 mm 2 mps 685 mmHg 52%
    19:00 +8°C° 0 mm 3 mps 685 mmHg 54%
    20:00 +8°C° 0 mm 3 mps 686 mmHg 54%
    21:00 +8°C° 0 mm 3 mps 686 mmHg 54%
    22:00 +7°C° 0 mm 3 mps 686 mmHg 54%
    23:00 +7°C° 0 mm 3 mps 686 mmHg 54%

    19 December, Tuesday

    Time Temperature Precipitation Wind Pressure Humidity
    00:00 +7°C° 0 mm 3 mps 686 mmHg 54%
    01:00 +7°C° 0 mm 3 mps 686 mmHg 54%
    02:00 +7°C° 0 mm 3 mps 686 mmHg 54%
    03:00 +7°C° 0 mm 3 mps 686 mmHg 54%
    04:00 +5°C° 0 mm 3 mps 686 mmHg 54%
    05:00 +5°C° 0 mm 3 mps 686 mmHg 53%
    06:00 +5°C° 0 mm 3 mps 686 mmHg 53%
    07:00 +5°C° 0 mm 3 mps 686 mmHg 53%
    08:00 +8°C° 0 mm 3 mps 687 mmHg 48%
    09:00 +10°C° 0 mm 3 mps 687 mmHg 42%
    10:00 +12°C° 0 mm 3 mps 688 mmHg 37%
    11:00 +13°C° 0 mm 3 mps 687 mmHg 34%
    12:00 +14°C° 0 mm 3 mps 687 mmHg 31%
    13:00 +16°C° 0 mm 3 mps 687 mmHg 28%
    14:00 +16°C° 0 mm 3 mps 686 mmHg 29%
    15:00 +15°C° 0 mm 2 mps 686 mmHg 30%
    16:00 +14°C° 0 mm 2 mps 686 mmHg 31%
    17:00 +13°C° 0 mm 2 mps 686 mmHg 33%
    18:00 +12°C° 0 mm 2 mps 686 mmHg 35%
    19:00 +10°C° 0 mm 3 mps 686 mmHg 37%
    20:00 +10°C° 0 mm 3 mps 686 mmHg 38%
    21:00 +9°C° 0 mm 3 mps 686 mmHg 38%
    22:00 +9°C° 0 mm 3 mps 686 mmHg 39%
    23:00 +9°C° 0 mm 3 mps 686 mmHg 39%
    Show more